Regional Weather Roundup
Issued by NWS

Home | Current Version | Previous Version | Text Only | Print | Product List | Glossary On
Versions: 1 2 3 4 5 6 7 8 9 10 11 12 13 14 15 16 17 18 19 20 21 22 23 24 25 26 27 28 29 30 31 32 33 34 35 36 37 38 39 40 41 42 43 44 45 46 47 48 49 50
354
ASUS44 KJAN 270303
RWRMS

MISSISSIPPI HOURLY WEATHER ROUNDUP
NATIONAL WEATHER SERVICE JACKSON MS
900 PM CST MON JAN 26 2015

NOTE: "FAIR: INDICATES FEW OR NO CLOUDS BELOW 12,000 FEET WITH NO
SIGNIFICANT WEATHER AND/OR OBSTRUCTIONS TO VISIBILITY.

MSZ001>002-007>008-010>013-018>021-025>028-034>036-270400-
NORTHWEST MISSISSIPPI

CITY           SKY/WX    TMP DP  RH WIND       PRES   REMARKS
CLARKSDALE     FAIR      41  37  87 S3        30.00S
CLEVELAND      FAIR      45  40  84 SW6       30.00F
GREENWOOD      CLEAR     38  35  89 S7        30.02S WCI  33
GREENVILLE     CLEAR     46  37  71 SW6       30.02R
GRENADA        FAIR      36  34  93 CALM      30.01S
OLIVE BRANCH   CLEAR     36  34  93 S6        29.97F WCI  31
OXFORD         FAIR      36  32  87 CALM      30.01S
TUNICA         CLEAR     41  34  75 S7        29.98F
$$

MSZ003>006-009-014>017-022>024-029>033-037>039-270400-
NORTHEAST MISSISSIPPI

CITY           SKY/WX    TMP DP  RH WIND       PRES   REMARKS
COLUMBUS AFB   CLEAR     34  31  88 CALM      30.02R
CORINTH        FAIR      37  32  81 SE3       29.98F
GOLDN TRIANGLE CLEAR     39  30  70 NW5       30.02R
STARKVILLE     FAIR      36  32  87 CALM      30.02R
TUPELO         CLEAR     38  30  73 CALM      29.99F
$$

MSZ040-058-270400-
CENTRAL MISSISSIPPI

CITY           SKY/WX    TMP DP  RH WIND       PRES   REMARKS
JACKSON INTL   CLEAR     44  33  65 SW5       30.04R
JACKSON HAWKNS CLEAR     46  34  62 W6        30.04R
MERIDIAN KEY   CLEAR     36  33  89 CALM      30.02R
MERIDIAN NAS   CLEAR     38  32  79 NW6       30.02R WCI  33
RAYMOND        FAIR      45  39  81 CALM      30.04S
VICKSBURG      CLEAR     46  36  68 SW3       30.06R
$$

MSZ059>079-270400-
SOUTH MISSISSIPPI

CITY           SKY/WX    TMP DP  RH WIND       PRES   REMARKS
BROOKHAVEN     FAIR      46  36  66 SW6       30.06F
HATTIESBURG    CLEAR     41  36  82 CALM      30.05F
MCCOMB         CLEAR     47  34  60 W3        30.06F
NATCHEZ        CLEAR     45  34  65 SW3       30.08R
PINE BELT      CLEAR     37  32  81 CALM      30.04R
$$

MSZ080>082-270400-
COASTAL MISSISSIPPI

CITY           SKY/WX    TMP DP  RH WIND       PRES   REMARKS
BILOXI         CLEAR     46  38  74 W5        30.06F
PASCAGOULA     CLEAR     40  36  86 CALM      30.06F
GULFPORT       CLEAR     42  36  79 CALM      30.06F
$$



USA.gov is the U.S. government's official web portal to all federal, state and local government web resources and services.